Voltar ao catálogo

METEOR 2-17 DEB

AtivoPO
NORAD 38283·DEBRIS·🇷🇺 Russia

Lançado Jan 30, 1988 de Plesetsk Cosmodrome

Loading…

Próximas Passagens (próximas 24 horas)

TLE

EnvelhecendoSource: Space-Track

Época: Sep 4, 2026, 14:33 UTC

1 38283U 88005AL  26247.60671415  .00000859  00000-0  55458-3 0  9998
2 38283  82.5514 205.7206 0020037  28.9830 331.2448 14.01780589114874

Acompanhe METEOR 2-17 DEB em tempo real com AllMySat

Download on the App Store